Location: City of Moscow
(46.7306°N, 116.9989°W)
Time: 20:15:41
(UTC+00:00)

Cosmos 1125 Rocket - Pass Details

Date: 11 December 2025
Orbit: 754 x 775 km, 74.0° (Epoch: 12 January)

Event Time Altitude Azimuth Distance (km) Brightness Sun altitude
Exits shadow 13:45:38 - 343° (NNW) 2,599 5.9 -15.9°
Reaches altitude 10° 13:46:22 10° 344° (NNW) 2,321 5.7 -15.7°
Maximum altitude 13:51:34 59° 64° (ENE) 884 4.0 -14.9°
Drops below altitude 10° 13:56:42 10° 144° (SE) 2,291 6.8 -14.1°
Sets 13:59:05 0° 149° (SSE) 3,209 7.6 -13.7°
